Location: La Brionne
(46.1728°N, 1.7849°E)
Time: 07:48:41
(UTC+00:00)

Cosmos 2263 Rocket - Visible Passes

Search period start: 28 October 2021 00:00
Search period end: 07 November 2021 00:00
Orbit: 825 x 847 km, 71.0° (Epoch: 27 October)

Date Brightness Start Highest point End Pass type
(mag) Time Alt. Az. Time Alt. Az. Time Alt. Az.
28 Oct 4.1 17:27:03 10° NW 17:32:02 34° WSW 17:36:58 10° SSW visible
29 Oct 4.0 17:10:12 10° NW 17:15:16 37° WSW 17:20:19 10° S visible
31 Oct 3.8 06:02:14 10° S 06:07:27 41° ESE 06:12:39 10° NE visible
01 Nov 3.9 05:45:34 10° S 05:50:41 38° ESE 05:55:48 10° NE visible
02 Nov 4.0 05:28:55 10° S 05:33:56 35° ESE 05:38:57 10° NE visible
03 Nov 4.1 05:12:16 10° SSE 05:17:10 32° ESE 05:22:04 10° NE visible
04 Nov 4.2 04:55:39 10° SSE 05:00:25 30° ESE 05:05:12 10° NE visible
05 Nov 4.3 04:39:02 10° SSE 04:43:40 27° ESE 04:48:18 10° NE visible
06 Nov 4.4 04:22:27 10° SSE 04:26:55 25° ESE 04:31:23 10° NE visible
06 Nov 2.3 06:05:01 10° SW 06:10:29 54° WNW 06:15:58 10° NNE visible
